Location: Praha
(50.0830°N, 14.4670°E)
Time: 22:30:19
(UTC+01:00)

ISS - Pass Details

Date: 23 November 2021
Orbit: 417 x 423 km, 51.6° (Epoch: 28 November)

Event Time Altitude Azimuth Distance (km) Brightness Sun altitude
Rises 16:56:48 0° 213° (SSW) 2,367 1.1 -7.7°
Reaches altitude 10° 16:59:08 10° 198° (SSW) 1,506 -0.3 -8.0°
Maximum altitude 17:01:54 23° 144° (SE) 938 -2.1 -8.4°
Enters shadow 17:04:34 11° 90° (E) 1,475 -1.6 -8.8°
